Location: Beekmeers
(50.8953°N, 3.6968°E)
Time: 13:32:33
(UTC+00:00)

SENTINEL 1B - Pass Details

Date: 16 October 2025
Orbit: 561 x 585 km, 98.1° (Epoch: 16 November)

Event Time Altitude Azimuth Distance (km) Brightness Sun altitude
Exits shadow 19:32:49 30° 0° (N) 1,069 6.7 -26.1°
Drops below altitude 10° 19:35:01 10° 351° (N) 1,924 8.2 -26.5°
Sets 19:37:12 0° 349° (NNW) 2,827 9.2 -26.8°
